LEMUR-2-PHILARI (55013 NORAD) Tracking and Keplerian Element Data

This shows tracking and keplerian element data for the satellite.

Feedback or suggestion? Click here.




ElementValue
Catalog55013
NameLEMUR-2-PHILARI
Epoch Orbit1245
Epoch Day84.92073563
Epoch Year2023
RAAN145.6848
Inclination97.4852
Eccentricity0.0007947
Argument of Perigee301.2322
Mean Anonmoly58.8131
Mean Motion15.15416205
Decay Rate0.0002802
L11 55013U 23001E 23084.92073563 .00028020 00000+0 14811-2 0 9990
L22 55013 97.4852 145.6848 0007947 301.2322 58.8131 15.15416205 12455



Live tracking and technical data element details for LEMUR-2-PHILARI (NORAD 55013). LEMUR-2-PHILARI can be tracked NOW for your location showing map with azimuth and elevation plus other details from your city location.







IsCatalogInMostPopularTable: catalog: 55013, numindb: 9
Update: records affected: 1



GetName: 55013 LEMUR-2-PHILARI

Hit Count: updated at: Mon, 27 Mar 2023 06:46:17 GMT